sat.trackr.live / text

‹ back to catalog

STARLINK-34427

NORAD 64498 · 2025-133AC

PAYLOAD ACTIVE UNKNOWN

§ Identity

Operator
Country
US
Launch date
2025-06-23
Launch site
AFETR
Launch vehicle
Mass (kg)
RCS (m²)

Purposes: comms

External: N2YO · Heavens-Above · Gunter

§ Orbital elements

Epoch: 2026-09-20T18:57:14.711904Z

Period
93.84 min
Inclination
53.1598°
Eccentricity
0.0001327
Mean motion
15.34449084 rev/d
Perigee alt
461.6 km
Apogee alt
463.5 km
Semi-major
6,840.7 km
B*
6.7320e-4
RAAN
288.1271°
Arg perigee
63.8640°
Mean anomaly
296.2499°
Rev number
7,109

§ Raw data

STARLINK-344271 64498U 25133AC  26263.78975361  .00022472  00000+0  67320-3 0  99972 64498  53.1598 288.1271 0001327  63.8640 296.2499 15.34449084 71093

JSON: /api/v1/satellites/64498 · /tle

For live sub-satellite position, see the globe view (requires WebGL).

§ Visibility from observer

Set your observer location to see the next 7 days of passes ≥ 10°. The values pass through the URL so the page stays shareable.

No JS? Fill the form by hand. The geolocation button needs JavaScript.